sat.trackr.live / text

‹ back to catalog

SMILE

NORAD 69123 · 2026-109A

PAYLOAD ACTIVE UNKNOWN

§ Identity

Operator
Country
ESA
Launch date
2026-05-19
Launch site
FRGUI
Launch vehicle
Mass (kg)
RCS (m²)

Purposes: science

External: N2YO · Heavens-Above · Gunter

§ Orbital elements

Epoch: 2026-05-24T15:40:35.120928Z

Period
98.83 min
Inclination
70.0007°
Eccentricity
0.0009123
Mean motion
14.57062785 rev/d
Perigee alt
696.2 km
Apogee alt
709.1 km
Semi-major
7,080.8 km
B*
-4.2379e-4
RAAN
229.2745°
Arg perigee
259.5159°
Mean anomaly
100.4951°
Rev number
80

§ Raw data

SMILE1 69123U 26109A   26144.65318427 -.00001976  00000+0 -42379-3 0  99942 69123  70.0007 229.2745 0009123 259.5159 100.4951 14.57062785   802

JSON: /api/v1/satellites/69123 · /tle

For live sub-satellite position, see the globe view (requires WebGL).

§ Visibility from observer

Set your observer location to see the next 7 days of passes ≥ 10°. The values pass through the URL so the page stays shareable.

No JS? Fill the form by hand. The geolocation button needs JavaScript.